User: anonymous   Login
Location: Raven Hill Discovery Center
(45.1336°N, 85.0553°W)
Time: 20:10:33
(UTC-05:00)
Language:

Cosmos 1470 - Orbit

View from above orbital plane
View from above orbital plane
View from above satellite
View from above satellite

Ground track
Ground track

The orbit data is extracted from the following two-line orbital elements,

1 14147U 83061A   17022.84041333 +.00001264 +00000-0 +74680-4 0  9995
2 14147 082.4855 181.6780 0016862 044.2860 315.9715 15.10501437582596
Epoch (UTC): 22 January 2017 20:10:11
Eccentricity: 0.0016862
inclination: 82.4855°
perigee height: 523 km
apogee height: 546 km
right ascension of ascending node: 181.6780°
argument of perigee: 44.2860°
revolutions per day: 15.10501437
mean anomaly at epoch: 315.9715°
orbit number at epoch: 58259

The dashed part of the orbit path shows where the satellite is in the earth's shadow,  

DLR